DW2806 Weather Reports


time (UTC)temp
F
wind
direction
speed
knots
gust
knots
rain 1hr
in
rain 24hr
in
rain mn
in
humidity
%
barometer
mb
20260904223034 74 17 0.0 0.0 0.00 0.00 0.00 74 1025.7
20260904221539 75 17 0.0 0.0 0.00 0.00 0.00 77 1025.7
20260904220033 76 17 0.0 0.0 0.00 0.00 0.00 71 1025.7
20260904214532 76 17 0.0 0.0 0.00 0.00 0.00 71 1025.7
20260904213032 77 17 0.0 0.0 0.00 0.00 0.00 73 1025.7
20260904211531 77 17 0.0 0.0 0.00 0.00 0.00 73 1025.7
20260904210031 78 17 0.0 0.0 0.00 0.00 0.00 70 1025.7
20260904204532 79 17 0.0 1.7 0.00 0.00 0.00 69 1025.7
20260904203030 79 17 0.0 0.0 0.00 0.00 0.00 70 1025.7
20260904201529 80 17 0.0 0.0 0.00 0.00 0.00 66 1025.7
20260904200029 80 17 0.0 0.0 0.00 0.00 0.00 65 1025.7
20260904194528 79 17 0.0 0.0 0.00 0.00 0.00 65 1025.7
20260904193028 80 17 0.0 0.0 0.00 0.00 0.00 71 1025.7
20260904191526 79 16 0.0 0.0 0.00 0.00 0.00 69 1025.7
20260904190027 79 16 0.0 1.7 0.00 0.00 0.00 66 1025.7
20260904184522 80 17 0.0 0.0 0.00 0.00 0.00 65 1025.7
20260904183026 80 17 0.0 0.0 0.00 0.00 0.00 68 1025.7
20260904181520 81 17 0.0 0.0 0.00 0.00 0.00 70 1025.7
20260904180018 82 323 0.0 0.0 0.00 0.00 0.00 66 1025.7
20260904174517 82 344 0.0 0.9 0.00 0.00 0.00 67 1025.7
20260904173015 82 344 0.0 1.7 0.00 0.00 0.00 64 1025.7
20260904171513 82 118 0.0 1.7 0.00 0.00 0.00 66 1025.7
20260904170016 81 119 0.0 3.5 0.00 0.00 0.00 70 1025.7
20260904164510 80 121 0.0 0.0 0.00 0.00 0.00 73 1025.7
20260904163008 81 121 0.0 3.5 0.00 0.00 0.00 70 1025.7
20260904161506 81 127 0.0 0.0 0.00 0.00 0.00 73 1025.7
20260904160004 80 129 0.0 3.5 0.00 0.00 0.00 74 1025.7
20260904154600 80 130 0.0 0.0 0.00 0.00 0.00 78 1025.7
20260904153124 79 130 0.0 0.9 0.00 0.00 0.00 80 1025.7
20260904151553 78 130 0.0 0.0 0.00 0.00 0.00 82 1025.7
20260904150050 77 131 0.0 0.0 0.00 0.00 0.00 84 1025.7
20260904144545 76 131 0.0 0.0 0.00 0.00 0.00 87 1025.7
20260904143041 74 221 0.0 0.0 0.00 0.00 0.00 90 1025.7
20260904141541 72 115 0.0 0.0 0.00 0.00 0.00 92 1025.7
20260904140035 70 115 0.0 1.7 0.00 0.00 0.00 95 1025.7
20260904134533 68 115 0.0 0.0 0.00 0.00 0.00 96 1025.7
20260904133026 68 115 0.0 0.0 0.00 0.00 0.00 95 1025.7
20260904131524 67 115 0.0 0.0 0.00 0.00 0.00 95 1025.7
20260904130022 67 115 0.0 0.0 0.00 0.00 0.00 96 1025.7
20260904124521 66 115 0.0 0.0 0.00 0.00 0.00 96 1025.7
20260904123018 66 115 0.0 0.0 0.00 0.00 0.00 96 1025.7
20260904121521 66 115 0.0 0.0 0.00 0.00 0.00 96 1025.7
20260904120016 66 115 0.0 0.0 0.00 0.00 0.00 96 1025.7
20260904114513 66 115 0.0 0.0 0.00 0.00 0.00 95 1025.7
20260904113013 66 115 0.0 0.0 0.00 0.00 0.00 95 1025.7
20260904111511 65 115 0.0 0.0 0.00 0.00 0.00 95 1025.7
20260904110009 65 115 0.0 0.0 0.00 0.00 0.00 96 1025.7
20260904104507 65 115 0.0 0.0 0.00 0.00 0.00 95 1025.7
20260904103006 65 115 0.0 0.0 0.00 0.00 0.00 95 1025.7
20260904101505 65 115 0.0 0.0 0.00 0.00 0.00 95 1025.7
20260904100005 65 115 0.0 0.0 0.00 0.00 0.00 95 1025.7
20260904094504 65 115 0.0 0.0 0.00 0.00 0.00 95 1025.7
20260904093003 65 115 0.0 0.0 0.00 0.00 0.00 95 1025.7
20260904091503 65 115 0.0 0.0 0.00 0.00 0.00 95 1025.7
20260904090002 65 115 0.0 0.0 0.00 0.00 0.00 95 1025.7
20260904084503 65 115 0.0 0.0 0.00 0.00 0.00 95 1025.7
20260904083001 65 115 0.0 0.0 0.00 0.00 0.00 95 1025.7
20260904081601 65 115 0.0 0.0 0.00 0.00 0.00 95 1025.7
20260904080100 65 115 0.0 0.0 0.00 0.00 0.00 95 1025.7
20260904074609 65 115 0.0 0.0 0.00 0.00 0.00 95 1025.7
20260904073102 65 115 0.0 0.0 0.00 0.00 0.00 95 1025.7
20260904071559 65 115 0.0 0.0 0.00 0.00 0.00 95 1025.7
20260904070124 65 115 0.0 0.0 0.00 0.00 0.00 95 1025.7
20260904064557 65 115 0.0 0.0 0.00 0.00 0.00 95 1025.7
20260904063103 65 115 0.0 0.0 0.00 0.00 0.00 95 1025.7
20260904061556 65 115 0.0 0.0 0.00 0.00 0.00 95 1025.7
20260904060056 65 115 0.0 0.0 0.00 0.00 0.00 95 1025.7
20260904054555 65 115 0.0 0.0 0.00 0.00 0.00 95 1025.7
20260904053054 65 115 0.0 0.0 0.00 0.00 0.00 95 1025.7
20260904051553 65 115 0.0 0.0 0.00 0.00 0.00 95 1025.7
20260904050052 65 115 0.0 0.0 0.00 0.00 0.00 95 1025.7
20260904044603 65 115 0.0 0.0 0.00 0.00 0.00 95 1025.7
20260904043055 65 115 0.0 3.5 0.00 0.00 0.00 95 1025.7
20260904041558 65 115 0.0 0.0 0.00 0.00 0.00 95 1025.7
20260904040104 65 115 0.0 0.0 0.00 0.00 0.00 95 1025.7
20260904034549 65 115 0.0 0.0 0.00 0.00 0.00 95 1025.7
20260904033047 65 115 0.0 0.0 0.00 0.00 0.00 94 1025.7
20260904031549 65 115 0.0 0.0 0.00 0.00 0.00 94 1025.7
20260904030046 65 115 0.0 0.0 0.00 0.00 0.00 94 1025.7
20260904024547 65 115 0.0 0.0 0.00 0.00 0.00 94 1025.7
20260904023050 65 115 0.0 0.0 0.00 0.00 0.00 94 1025.7
20260904021545 65 115 0.0 0.0 0.00 0.00 0.00 94 1025.7
20260904020044 65 115 0.0 0.0 0.00 0.00 0.00 94 1025.7
20260904014612 65 115 0.0 0.0 0.00 0.00 0.00 93 1025.7
20260904013048 66 115 0.0 0.0 0.00 0.00 0.00 94 1025.7
20260904011542 66 115 0.0 0.0 0.00 0.00 0.00 93 1025.7
20260904010049 66 115 0.0 0.0 0.00 0.00 0.00 93 1025.7
20260904004541 66 115 0.0 0.0 0.00 0.00 0.00 93 1025.7
20260904003041 67 115 0.0 0.0 0.00 0.00 0.00 93 1025.7
20260904001543 67 115 0.0 0.0 0.00 0.00 0.00 92 1025.7
20260904000039 68 115 0.0 0.0 0.00 0.00 0.00 92 1025.7
20260903234538 69 115 0.0 0.0 0.00 0.00 0.00 92 1025.7
20260903233043 69 115 0.0 0.0 0.00 0.00 0.00 92 1025.7
20260903231538 70 115 0.0 0.0 0.00 0.00 0.00 92 1025.7
20260903230040 71 115 0.0 0.0 0.00 0.00 0.00 91 1025.7
20260903224538 71 115 0.0 0.0 0.00 0.00 0.00 91 1025.7